TimeCDT,TemperatureF,Dew PointF,Humidity,Sea Level PressureIn,VisibilityMPH,Wind Direction,Wind SpeedMPH,Gust SpeedMPH,PrecipitationIn,Events,Conditions,WindDirDegrees,DateUTC
12:14 AM,37.4,32.0,81,30.07,10.0,NW,16.1,20.7,N/A,,Overcast,320,2012-10-06 05:14:00
12:33 AM,37.4,30.2,75,30.08,10.0,NW,13.8,19.6,N/A,,Overcast,320,2012-10-06 05:33:00
12:54 AM,37.4,32.0,81,30.08,10.0,NW,13.8,-,N/A,,Overcast,320,2012-10-06 05:54:00
1:14 AM,37.4,30.2,75,30.08,10.0,NW,15.0,-,N/A,,Scattered Clouds,320,2012-10-06 06:14:00
1:54 AM,37.4,30.2,75,30.09,10.0,NW,11.5,17.3,N/A,,Scattered Clouds,320,2012-10-06 06:54:00
2:13 AM,37.4,30.2,75,30.10,10.0,NW,12.7,-,N/A,,Mostly Cloudy,320,2012-10-06 07:13:00
2:34 AM,37.4,30.2,75,30.10,10.0,NNW,16.1,20.7,N/A,,Overcast,330,2012-10-06 07:34:00
2:54 AM,37.4,30.2,75,30.10,10.0,NW,13.8,19.6,N/A,,Overcast,320,2012-10-06 07:54:00
3:13 AM,37.4,30.2,75,30.10,10.0,NNW,15.0,20.7,N/A,,Overcast,330,2012-10-06 08:13:00
3:34 AM,37.4,28.4,70,30.11,10.0,NW,15.0,21.9,N/A,,Overcast,320,2012-10-06 08:34:00
3:54 AM,37.4,30.2,75,30.11,10.0,NW,15.0,-,N/A,,Overcast,320,2012-10-06 08:54:00
4:34 AM,37.4,28.4,70,30.12,10.0,NW,13.8,18.4,N/A,,Overcast,320,2012-10-06 09:34:00
4:54 AM,37.4,28.4,70,30.13,10.0,NW,13.8,-,N/A,,Overcast,320,2012-10-06 09:54:00
5:13 AM,37.4,28.4,70,30.13,10.0,NW,15.0,23.0,N/A,,Overcast,320,2012-10-06 10:13:00
5:34 AM,37.4,28.4,70,30.14,10.0,NW,15.0,19.6,N/A,,Overcast,320,2012-10-06 10:34:00
5:53 AM,37.4,28.4,70,30.14,10.0,NW,13.8,-,N/A,,Overcast,310,2012-10-06 10:53:00
6:14 AM,37.4,28.4,70,30.15,10.0,NW,15.0,-,N/A,,Mostly Cloudy,320,2012-10-06 11:14:00
6:34 AM,37.4,28.4,70,30.15,10.0,NW,13.8,18.4,N/A,,Scattered Clouds,320,2012-10-06 11:34:00
6:53 AM,37.4,28.4,70,30.16,10.0,NW,12.7,-,N/A,,Scattered Clouds,310,2012-10-06 11:53:00
7:13 AM,37.4,28.4,70,30.16,10.0,NNW,13.8,-,N/A,,Scattered Clouds,330,2012-10-06 12:13:00
7:34 AM,37.4,28.4,70,30.17,10.0,NW,10.4,17.3,N/A,,Scattered Clouds,320,2012-10-06 12:34:00
7:53 AM,37.4,28.4,70,30.18,10.0,NNW,10.4,18.4,N/A,,Scattered Clouds,340,2012-10-06 12:53:00
8:13 AM,39.2,28.4,65,30.19,10.0,North,13.8,20.7,N/A,,Scattered Clouds,360,2012-10-06 13:13:00
8:34 AM,39.2,26.6,61,30.20,10.0,North,10.4,-,N/A,,Mostly Cloudy,350,2012-10-06 13:34:00
8:53 AM,39.2,28.4,65,30.20,10.0,NNW,15.0,-,N/A,,Mostly Cloudy,330,2012-10-06 13:53:00
9:13 AM,39.2,28.4,65,30.21,10.0,North,13.8,24.2,N/A,,Scattered Clouds,350,2012-10-06 14:13:00
9:34 AM,41.0,28.4,61,30.21,10.0,North,16.1,20.7,N/A,,Clear,350,2012-10-06 14:34:00
9:53 AM,41.0,28.4,61,30.22,10.0,North,17.3,21.9,N/A,,Clear,360,2012-10-06 14:53:00
10:13 AM,41.0,28.4,61,30.22,10.0,North,19.6,-,N/A,,Scattered Clouds,360,2012-10-06 15:13:00
10:34 AM,42.8,28.4,57,30.23,10.0,North,13.8,18.4,N/A,,Scattered Clouds,350,2012-10-06 15:34:00
10:53 AM,42.8,26.6,53,30.23,10.0,North,17.3,23.0,N/A,,Clear,350,2012-10-06 15:53:00
11:14 AM,44.6,26.6,49,30.24,10.0,NNW,15.0,23.0,N/A,,Clear,340,2012-10-06 16:14:00
11:34 AM,44.6,26.6,49,30.24,10.0,North,16.1,24.2,N/A,,Scattered Clouds,360,2012-10-06 16:34:00
11:53 AM,44.6,26.6,49,30.23,10.0,North,19.6,-,N/A,,Mostly Cloudy,350,2012-10-06 16:53:00
12:14 PM,42.8,24.8,49,30.24,10.0,NNW,11.5,-,N/A,,Overcast,340,2012-10-06 17:14:00
12:33 PM,42.8,26.6,53,30.24,10.0,WNW,12.7,-,N/A,,Overcast,300,2012-10-06 17:33:00
12:54 PM,42.8,26.6,53,30.25,10.0,North,17.3,23.0,N/A,,Overcast,350,2012-10-06 17:54:00
1:13 PM,42.8,28.4,57,30.24,10.0,NNW,5.8,-,N/A,,Overcast,340,2012-10-06 18:13:00
1:34 PM,42.8,24.8,49,30.23,10.0,NW,6.9,-,N/A,,Overcast,310,2012-10-06 18:34:00
1:53 PM,42.8,21.2,42,30.22,10.0,NW,5.8,-,N/A,,Overcast,320,2012-10-06 18:53:00
2:13 PM,42.8,17.6,36,30.22,10.0,NNW,4.6,-,N/A,,Overcast,340,2012-10-06 19:13:00
2:34 PM,44.6,19.4,37,30.22,10.0,NW,9.2,-,N/A,,Overcast,310,2012-10-06 19:34:00
2:53 PM,44.6,21.2,39,30.22,10.0,NW,11.5,-,N/A,,Overcast,310,2012-10-06 19:53:00
3:13 PM,44.6,21.2,39,30.21,10.0,WNW,10.4,-,N/A,,Overcast,300,2012-10-06 20:13:00
3:34 PM,44.6,23.0,43,30.21,10.0,NW,8.1,-,N/A,,Overcast,310,2012-10-06 20:34:00
4:13 PM,44.6,21.2,39,30.21,10.0,NNW,3.5,-,N/A,,Overcast,340,2012-10-06 21:13:00
4:34 PM,44.6,21.2,39,30.21,10.0,NW,4.6,-,N/A,,Overcast,320,2012-10-06 21:34:00
4:53 PM,44.6,23.0,43,30.20,10.0,NW,4.6,-,N/A,,Overcast,320,2012-10-06 21:53:00
5:13 PM,44.6,21.2,39,30.20,10.0,NNW,8.1,-,N/A,,Overcast,330,2012-10-06 22:13:00
5:34 PM,44.6,23.0,43,30.19,10.0,NNW,6.9,-,N/A,,Overcast,330,2012-10-06 22:34:00
5:53 PM,44.6,23.0,43,30.19,10.0,NNW,3.5,-,N/A,,Overcast,330,2012-10-06 22:53:00
6:14 PM,44.6,23.0,43,30.19,10.0,NNW,6.9,-,N/A,,Overcast,330,2012-10-06 23:14:00
6:34 PM,44.6,23.0,43,30.19,10.0,NW,4.6,-,N/A,,Mostly Cloudy,310,2012-10-06 23:34:00
6:53 PM,44.6,21.2,39,30.19,10.0,NW,5.8,-,N/A,,Overcast,320,2012-10-06 23:53:00
7:14 PM,44.6,24.8,46,30.19,10.0,WNW,9.2,-,N/A,,Overcast,290,2012-10-07 00:14:00
7:34 PM,44.6,26.6,49,30.20,10.0,WNW,10.4,-,N/A,,Overcast,290,2012-10-07 00:34:00
7:53 PM,44.6,26.6,49,30.20,10.0,West,8.1,-,N/A,,Overcast,270,2012-10-07 00:53:00
8:14 PM,42.8,26.6,53,30.20,10.0,West,6.9,-,N/A,,Mostly Cloudy,270,2012-10-07 01:14:00
8:34 PM,42.8,26.6,53,30.20,10.0,West,9.2,-,N/A,,Mostly Cloudy,270,2012-10-07 01:34:00
8:53 PM,42.8,26.6,53,30.19,10.0,West,8.1,-,N/A,,Overcast,270,2012-10-07 01:53:00
9:14 PM,41.0,28.4,61,30.20,10.0,West,8.1,-,N/A,,Mostly Cloudy,270,2012-10-07 02:14:00
9:34 PM,41.0,28.4,61,30.19,10.0,West,8.1,-,N/A,,Scattered Clouds,270,2012-10-07 02:34:00
9:53 PM,41.0,28.4,61,30.19,10.0,West,8.1,-,N/A,,Clear,260,2012-10-07 02:53:00
10:13 PM,39.2,26.6,61,30.19,10.0,West,9.2,-,N/A,,Clear,270,2012-10-07 03:13:00
10:34 PM,39.2,26.6,61,30.19,10.0,West,11.5,-,N/A,,Clear,280,2012-10-07 03:34:00
10:53 PM,41.0,26.6,57,30.19,10.0,WNW,15.0,-,N/A,,Clear,290,2012-10-07 03:53:00
11:13 PM,39.2,26.6,61,30.18,10.0,WNW,12.7,-,N/A,,Clear,290,2012-10-07 04:13:00
11:34 PM,39.2,26.6,61,30.18,10.0,West,11.5,17.3,N/A,,Clear,280,2012-10-07 04:34:00
11:53 PM,39.2,26.6,61,30.18,10.0,West,11.5,-,N/A,,Clear,270,2012-10-07 04:53:00